Theta_e
348 358 367 365 363 363 364 362 362 362 362 361 360 361 362 361 360 360 359 360 360 359 358 359 358 358 358 359 358 359 360 360 359 360 359 360 359 359 359 358 358 355 358
353 359 366 365 363 362 361 362 361 361 361 362 363 362 361 361 361 360 360 359 358 358 357 357 356 356 357 357 357 360 360 359 358 358 358 357 357 360 358 358 358 355 358
355 358 362 366 365 361 360 360 360 360 361 362 362 361 360 360 360 359 359 358 357 357 357 357 356 355 355 356 358 360 359 357 356 356 357 352 353 358 358 357 357 356 355
355 361 360 364 366 364 361 363 362 361 361 362 361 359 359 358 358 358 358 358 358 357 357 356 355 356 355 356 357 358 358 356 355 356 352 353 351 357 357 358 356 355 354
354 359 361 366 365 364 363 363 363 361 360 360 360 360 358 358 356 357 357 358 358 359 358 357 359 355 354 355 355 357 358 355 355 353 349 348 350 355 358 357 354 354 353
351 357 362 365 363 362 363 361 357 357 357 358 360 358 357 354 353 355 351 354 357 358 358 358 359 356 357 355 354 354 355 354 355 349 348 351 349 356 355 354 353 351 349
350 356 357 362 362 361 359 356 354 353 355 355 355 354 354 354 352 352 349 351 351 352 352 354 356 355 355 356 354 354 355 352 345 342 344 346 349 357 355 353 350 348 346
348 354 357 360 359 357 353 352 352 351 352 352 347 347 355 355 352 351 353 351 349 350 350 350 350 353 354 354 356 354 355 348 343 342 345 347 354 356 355 352 348 344 343
332 349 350 346 350 355 353 351 349 348 345 343 342 341 341 339 339 344 346 350 353 352 350 349 346 348 351 353 353 353 350 346 339 340 344 344 354 355 354 350 347 344 342
318 324 339 343 340 334 332 346 343 343 340 334 333 335 333 332 333 333 336 342 345 347 347 351 348 349 350 351 352 353 350 346 340 339 337 343 348 351 353 349 347 344 341
314 313 312 313 312 315 318 321 322 329 330 328 324 328 321 316 318 318 328 334 335 340 339 343 344 348 348 349 350 352 350 338 334 335 337 344 349 351 353 349 346 343 342
306 308 307 307 308 308 314 309 308 311 310 310 309 310 311 310 314 317 320 325 328 330 330 329 330 331 338 336 339 346 344 338 336 339 341 345 347 351 351 350 346 343 340
304 305 306 304 306 308 308 306 305 305 306 307 307 308 308 309 308 308 308 310 312 320 315 315 314 314 316 324 335 336 340 341 339 340 342 345 348 349 351 351 348 344 340
304 301 304 304 304 305 306 306 304 304 303 304 305 306 304 305 305 305 306 307 308 310 308 309 309 311 311 313 319 332 335 337 339 342 344 348 349 349 351 350 350 346 342
302 301 301 301 301 303 303 303 303 302 302 303 303 304 303 304 303 305 305 306 306 307 307 307 307 309 310 312 314 319 327 336 339 342 344 347 349 350 350 348 349 349 344
300 300 300 301 300 301 301 302 302 301 302 301 302 303 305 304 303 304 305 305 305 305 306 306 306 307 308 310 312 314 318 328 336 339 340 340 346 348 349 348 350 349 345
298 299 299 300 300 300 301 301 301 300 301 299 300 302 303 304 303 303 304 304 304 305 306 306 306 306 306 308 306 309 310 317 325 333 337 339 341 343 346 347 348 349 347
298 297 299 304 300 299 299 299 299 299 299 298 299 300 301 305 303 302 303 303 304 304 305 304 303 303 303 303 304 306 307 309 312 319 332 336 339 340 342 344 346 348 348
298 297 298 298 299 299 298 298 298 299 298 298 298 298 299 303 304 301 303 302 303 303 302 302 302 302 302 303 304 306 307 309 312 316 321 330 335 337 338 340 343 344 347
298 297 297 298 297 297 297 297 297 297 297 298 298 298 299 300 302 300 301 302 302 301 301 301 300 301 301 302 306 304 304 306 305 308 313 317 323 333 336 336 337 339 344
298 296 296 297 296 297 296 295 294 294 295 296 297 299 299 300 301 299 300 301 301 300 299 300 300 299 299 301 300 300 300 301 302 303 310 308 312 324 332 335 334 336 338
297 296 295 297 297 296 296 296 295 294 295 296 298 298 299 299 299 300 298 299 299 298 298 297 298 297 298 299 297 297 294 296 299 303 303 304 308 313 316 330 333 333 333
295 296 295 296 297 297 297 297 296 296 295 295 296 296 298 299 299 298 298 297 297 297 296 296 296 296 295 296 297 297 292 290 296 300 300 301 305 310 314 317 330 332 332
296 295 296 296 296 297 297 296 294 293 292 294 294 296 296 297 297 298 298 297 296 296 296 296 299 296 295 294 296 299 298 298 293 291 297 299 303 308 309 313 315 329 331
297 295 296 296 296 297 296 296 295 294 294 295 295 294 294 296 297 298 297 296 296 296 296 296 296 296 296 294 294 295 296 296 296 295 292 295 299 304 308 309 310 310 328
297 297 296 296 295 296 296 296 295 294 294 293 293 293 294 295 296 296 297 296 296 296 295 296 296 295 296 296 296 296 296 295 295 295 294 294 294 299 306 308 309 311 313
Wind_Speed
1 6 11 12 11 11 11 13 14 15 13 14 14 14 16 15 13 12 11 11 11 10 9 9 9 9 8 10 7 6 6 7 8 10 9 9 10 12 13 14 13 9 12
7 6 11 12 11 11 12 14 15 15 14 14 13 14 14 14 15 13 11 11 10 10 8 7 7 8 8 7 8 6 5 8 9 9 10 8 10 11 12 15 14 12 14
9 7 8 11 11 12 12 13 15 14 14 14 13 14 14 14 14 14 13 11 10 10 10 7 7 5 5 5 6 5 5 5 8 9 10 5 6 12 14 14 15 14 11
10 7 5 11 10 11 12 12 14 13 12 13 13 14 14 14 14 13 12 11 10 9 9 7 7 5 4 6 6 5 5 5 8 9 4 5 7 13 14 14 12 11 11
9 7 9 11 12 13 13 14 14 13 13 13 12 13 13 14 14 14 13 12 12 11 10 8 5 4 2 5 6 6 7 4 6 7 2 7 6 10 13 13 10 8 9
8 8 9 13 12 14 16 17 15 13 13 13 12 12 11 13 13 13 14 14 13 13 12 11 8 4 2 3 7 6 5 5 4 3 3 8 7 14 12 12 12 9 9
7 7 9 15 16 16 16 15 14 13 12 11 11 10 9 9 12 11 12 13 13 13 13 12 10 8 5 4 7 8 6 4 5 3 5 2 6 16 16 14 12 10 9
10 8 9 14 15 14 15 14 12 11 11 12 16 18 11 11 14 13 11 11 10 11 12 12 12 10 8 6 5 8 7 4 5 4 4 3 12 15 15 15 13 10 10
6 8 6 6 12 12 11 9 9 11 15 17 18 19 18 18 19 19 17 17 12 10 10 9 11 12 10 7 5 7 6 4 2 3 3 2 4 14 16 15 14 13 11
7 6 6 5 4 7 4 9 15 14 17 18 19 19 19 17 19 19 19 18 16 18 17 9 8 11 10 8 8 8 8 6 3 2 3 3 6 11 17 20 16 13 12
5 6 7 6 6 5 5 9 12 16 16 16 14 18 12 8 9 12 18 21 20 18 18 17 16 6 7 9 8 6 8 2 4 2 3 11 10 12 15 15 16 15 14
4 4 7 7 7 7 6 7 7 8 6 6 7 8 6 7 8 11 15 21 20 21 20 20 20 20 12 4 2 5 1 4 3 3 4 13 13 10 11 17 15 15 14
4 3 6 7 6 7 6 4 4 4 4 4 7 6 6 6 5 5 4 5 5 13 6 10 8 6 8 8 4 4 4 4 3 3 6 12 11 11 16 18 18 18 16
6 4 4 7 6 6 4 4 4 4 4 4 5 6 5 3 5 5 4 5 5 4 6 5 4 7 8 6 8 8 5 4 3 4 5 14 14 17 19 17 19 18 17
7 6 5 6 6 5 6 4 4 4 4 3 4 5 5 4 4 4 4 4 4 5 5 5 5 6 7 9 7 6 9 6 6 4 4 14 16 21 21 18 19 20 19
9 8 6 6 6 6 5 5 4 4 3 4 4 4 6 4 4 5 5 5 5 4 5 5 5 5 7 7 10 10 7 9 7 5 3 4 12 17 21 19 19 22 21
8 9 8 6 6 7 6 5 4 3 3 3 3 5 6 4 5 5 4 5 4 5 6 5 5 6 6 7 9 10 10 7 8 11 6 4 6 14 20 17 20 21 23
9 9 7 5 7 7 6 4 4 3 3 2 3 3 5 4 4 4 4 4 4 4 4 4 5 5 5 4 5 7 8 10 9 11 10 6 5 6 13 19 21 21 23
9 9 8 7 7 7 6 5 4 4 3 2 2 2 3 3 3 3 2 4 4 3 3 3 3 3 4 5 7 7 9 9 10 10 13 12 11 10 6 15 22 21 22
8 8 8 6 7 7 5 4 3 3 2 1 1 1 2 2 3 3 3 5 3 3 3 3 2 2 3 4 7 7 5 7 13 8 9 11 12 13 12 11 10 12 22
8 8 8 8 6 5 3 3 2 1 1 1 2 3 2 2 3 4 3 3 3 2 3 3 2 2 3 3 4 6 5 9 8 13 6 11 13 15 14 12 10 9 11
9 9 8 8 7 5 4 3 3 2 3 3 2 3 3 3 5 4 4 3 3 2 4 3 3 2 2 3 4 8 9 10 4 11 12 11 14 10 12 16 13 14 12
10 10 9 9 9 7 7 3 2 1 2 2 1 2 3 4 5 5 4 3 3 2 3 3 3 3 2 2 3 3 8 9 13 8 13 12 12 10 8 12 14 13 14
12 9 9 9 9 8 9 5 5 4 4 3 3 3 4 4 5 4 3 3 3 3 4 3 4 3 2 4 3 5 5 6 11 16 8 12 12 13 9 7 11 13 13
13 10 9 10 9 8 8 8 6 4 4 3 2 3 3 5 4 3 4 4 4 3 4 5 5 5 3 3 4 3 3 3 5 7 13 13 11 11 9 8 8 11 12
12 11 9 10 8 8 8 9 8 8 6 3 3 3 4 3 3 4 5 4 4 4 5 4 6 6 6 5 4 5 6 8 9 7 10 13 16 14 10 9 10 9 10
Wind_Direction
192 105 96 86 69 61 54 52 55 56 55 62 58 51 53 54 49 44 39 34 41 34 30 26 23 22 22 33 48 54 63 77 104 94 94 101 102 107 111 110 105 100 105
129 104 92 79 72 63 60 62 62 59 59 65 63 65 57 54 55 51 44 41 36 30 30 40 40 22 27 50 43 50 83 108 107 106 109 107 103 106 116 115 108 109 111
100 84 80 81 77 76 72 75 73 68 67 63 61 61 60 61 58 54 46 43 35 27 27 25 25 38 78 82 60 63 73 130 129 127 122 121 111 110 120 121 118 120 107
88 78 84 80 86 82 81 84 86 83 76 69 65 62 59 57 54 51 49 48 44 29 17 13 8 26 93 125 119 101 90 116 137 134 148 139 125 130 128 123 123 129 120
89 78 70 86 93 90 85 85 80 78 74 71 70 66 66 61 54 52 45 38 28 22 15 13 6 7 83 136 143 122 117 119 135 141 213 137 140 136 133 134 134 127 119
85 73 78 91 95 94 87 84 78 73 71 69 61 56 57 60 54 54 39 34 29 21 12 10 359 343 334 178 168 155 131 119 115 17 299 157 150 148 142 134 128 117 106
107 95 92 90 90 88 89 88 82 69 62 55 46 34 29 45 52 53 43 38 30 23 18 13 2 358 330 280 202 185 172 113 86 40 334 222 164 150 149 145 142 140 132
124 116 104 103 99 93 92 86 79 66 47 38 32 26 30 27 28 20 33 29 26 18 19 18 12 3 344 312 240 195 169 126 96 60 24 351 145 147 154 154 153 156 153
99 114 111 101 104 97 93 85 72 61 53 42 31 30 32 34 26 26 16 9 9 356 6 9 7 8 352 329 281 198 166 127 167 158 127 42 143 164 166 162 161 163 168
78 89 122 126 116 119 107 83 53 56 52 45 33 25 24 28 22 21 14 13 16 16 7 17 351 15 9 344 304 237 209 213 229 232 182 233 193 201 179 166 169 173 178
47 66 81 82 73 58 72 51 45 43 49 46 36 25 23 16 11 15 12 12 11 14 7 5 5 29 22 343 341 281 228 219 264 251 249 225 212 201 179 178 176 182 188
86 62 77 62 56 51 50 48 41 35 34 45 37 32 22 24 16 17 12 15 9 11 11 14 9 8 351 336 303 313 224 240 262 265 233 239 239 233 221 180 189 189 193
140 84 100 90 77 70 50 53 44 38 34 37 41 44 36 21 8 10 1 357 354 10 9 5 1 360 350 346 310 288 254 214 235 245 259 257 263 250 241 203 196 195 192
135 138 125 117 106 92 85 70 67 51 41 34 38 53 50 21 12 4 2 351 3 355 4 3 350 342 347 343 340 308 279 244 226 242 243 258 257 242 238 230 204 206 204
152 159 143 127 118 115 95 94 79 60 47 36 40 48 52 28 15 3 351 355 0 0 4 353 348 341 339 338 337 327 320 267 242 235 229 244 254 234 235 234 213 206 208
161 167 152 122 132 117 105 96 89 73 49 42 35 55 43 35 15 9 353 352 359 3 349 350 344 343 341 341 337 339 327 320 295 260 244 250 268 236 233 236 221 211 204
171 160 156 145 134 116 110 96 100 90 72 49 37 48 40 42 28 8 354 351 346 356 354 356 355 352 351 342 337 332 328 320 322 304 262 228 250 252 232 226 228 215 210
151 157 167 146 133 130 125 116 108 106 89 70 58 50 31 22 47 19 1 346 341 2 360 359 351 343 339 343 334 314 319 321 316 314 299 268 239 238 237 220 233 226 215
163 161 164 159 147 140 122 117 101 100 93 105 68 56 18 11 22 27 337 314 331 345 351 351 344 351 345 331 319 335 328 323 323 326 317 309 276 250 219 241 221 222 222
158 164 167 167 155 138 113 105 77 61 52 80 96 165 5 320 346 350 316 312 318 344 334 348 335 325 309 306 324 311 323 326 308 303 298 301 298 281 245 214 226 227 220
169 164 165 159 164 135 112 109 90 167 267 275 264 230 283 280 295 300 286 285 319 325 293 293 277 311 304 309 339 317 313 292 332 303 339 326 317 310 268 235 214 208 228
174 182 186 175 153 148 132 150 152 171 215 229 241 248 265 255 268 273 258 281 286 311 322 323 323 307 289 346 330 321 328 317 304 335 317 321 305 298 308 278 218 212 205
179 188 181 177 161 158 152 137 119 64 17 6 307 300 273 250 270 256 281 259 288 245 264 264 267 290 270 274 262 248 315 301 312 316 309 305 305 302 301 314 273 215 207
186 181 179 163 165 170 163 156 159 171 193 221 216 229 269 274 287 283 281 308 287 288 288 267 249 235 200 277 269 234 233 258 300 310 304 306 299 290 309 313 322 272 208
179 176 176 169 169 169 168 165 168 182 203 220 239 258 280 293 283 318 313 297 289 295 272 268 284 276 251 249 241 285 234 256 243 276 297 305 303 289 288 302 302 302 268
180 174 165 168 179 172 163 173 176 192 208 215 241 252 268 257 285 300 298 295 289 282 296 293 276 270 270 254 247 236 250 276 284 272 281 290 293 294 286 293 290 287 302